User: anonymous   Login
Location: Lawrence Hall of Science
(37.8785°N, 122.2415°W)
Time: 09:17:44
(UTC-08:00)
Language:

Cosmos 2098 Rocket - Orbit

View from above orbital plane
View from above orbital plane
View from above satellite
View from above satellite

Ground track
Ground track

The orbit data is extracted from the following two-line orbital elements,

1 20775U 90078B   17055.18818800  .00002455  00000-0  12343-3 0  9999
2 20775  82.9318 140.7879 0590185 330.3053  26.5792 14.30084868332613
Epoch (UTC): 24 February 2017 04:30:59
Eccentricity: 0.0590185
inclination: 82.9318°
perigee height: 368 km
apogee height: 1214 km
right ascension of ascending node: 140.7879°
argument of perigee: 330.3053°
revolutions per day: 14.30084868
mean anomaly at epoch: 26.5792°
orbit number at epoch: 33261

The dashed part of the orbit path shows where the satellite is in the earth's shadow,  

DLR